Location: Roland
(31.1349°N, 85.4372°W)
Time: 13:19:42
(UTC+00:00)

Explorer 11/Cluster Stage 4 - Pass Details

Date: 27 April 2021
Orbit: 467 x 1257 km, 28.8° (Epoch: 15 May)

Event Time Altitude Azimuth Distance (km) Brightness Sun altitude
Exits shadow 10:25:43 10° 254° (WSW) 1,684 7.6 -7.9°
Maximum altitude 10:29:25 56° 175° (S) 558 5.8 -7.2°
Drops below altitude 10° 10:32:57 10° 96° (E) 1,609 9.4 -6.5°
Sets 10:35:08 0° 92° (E) 2,505 10.7 -6.0°
